Date String (YYYY-MM-DD hh:mm:ss) UTC,Instrument flags,absolute air pressure of the measurement (hPa),sample flow rate (lpm),inlet stack bypass flow (lpm),air temperature of the measurement (°C),ambient temperature measured by the external sensor (°C),aerosol sample conditioner tube jacket temperature (°C),OPC LED temperature (°C),internal box temperature (°C),relative humidity of the measurement (%),span deviation,mass concentration of particles derived from Lorenz-Mie calculation of OPC scattering (μg/m³),mass concentration of particles derived from Lorenz-Mie calculation of OPC scattering (μg/m³),mass concentration of particles derived from Lorenz-Mie calculation of OPC scattering (μg/m³)
DateTimeUTC,F1_M11,P_M11,Q1_M11,Q2_M11,T1_M11,T2_M11,T3_M11,T4_M11,T5_M11,U1_M11,ZSPAN_M11,X2_M11,X0_M11,X1_M11
2024-04-26 16:00:00,SystemResetWarning,0815.9,5.01,000.00,026.0,025.3,000.0,034.4,027.8,014.1,0000.0,0002.06,0008.13,0001.39
2024-04-26 16:01:00,SystemResetWarning,0815.9,5.01,000.00,026.0,025.3,000.0,034.4,027.8,014.7,0000.0,0002.06,0008.51,0001.38
2024-04-26 16:02:00,SystemResetWarning,0815.9,5.00,000.00,026.0,025.3,000.0,034.4,027.8,015.0,0000.0,0002.05,0008.58,0001.37
2024-04-26 16:03:00,SystemResetWarning,0815.8,5.00,000.00,026.0,025.3,000.0,034.4,027.9,015.6,0000.0,0002.05,0008.64,0001.38
2024-04-26 16:04:00,SystemResetWarning,0815.9,4.99,000.00,026.1,025.3,000.0,034.4,027.9,015.3,0000.0,0002.04,0008.65,0001.37
2024-04-26 16:05:00,SystemResetWarning,0815.8,4.99,000.00,026.1,025.3,000.0,034.4,027.9,015.3,0000.0,0002.07,0008.61,0001.38
2024-04-26 16:06:00,SystemResetWarning,0815.9,4.99,000.00,026.1,025.4,000.0,034.4,027.9,015.4,0000.0,0002.00,0008.29,0001.38
2024-04-26 16:07:00,SystemResetWarning,0815.9,5.00,000.00,026.1,025.4,000.0,034.5,027.9,015.4,0000.0,0001.98,0006.23,0001.40
2024-04-26 16:08:00,SystemResetWarning,0816.0,5.00,000.00,026.1,025.4,000.0,034.5,027.9,015.8,0000.0,0001.97,0005.20,0001.41
2024-04-26 16:09:00,SystemResetWarning,0816.0,5.02,000.00,026.1,025.4,000.0,034.5,027.9,015.2,0000.0,0001.95,0005.08,0001.42
2024-04-26 16:10:00,SystemResetWarning,0816.0,5.01,000.00,026.2,025.5,000.0,034.5,028.0,015.2,0000.0,0001.95,0005.05,0001.43
2024-04-26 16:11:00,SystemResetWarning,0816.0,5.01,000.00,026.2,025.5,000.0,034.5,028.0,015.9,0000.0,0001.97,0004.47,0001.44
2024-04-26 16:12:00,SystemResetWarning,0816.0,4.99,000.00,026.2,025.5,000.0,034.5,028.0,015.9,0000.0,0002.00,0003.46,0001.47
2024-04-26 16:13:00,SystemResetWarning,0816.0,5.00,000.00,026.2,025.6,000.0,034.5,028.0,015.7,0000.0,0002.01,0003.47,0001.48
2024-04-26 16:14:00,SystemResetWarning,0816.0,5.00,000.00,026.2,025.6,000.0,034.6,028.1,016.2,0000.0,0002.06,0003.30,0001.48
2024-04-26 16:15:00,SystemResetWarning,0816.1,5.00,000.00,026.3,025.6,000.0,034.6,028.1,015.6,0000.0,0002.13,0003.53,0001.49
2024-04-26 16:16:00,SystemResetWarning,0816.1,4.99,000.00,026.3,025.7,000.0,034.6,028.1,015.5,0000.0,0002.11,0003.98,0001.49
2024-04-26 16:17:00,SystemResetWarning,0816.1,5.00,000.00,026.3,025.7,000.0,034.6,028.1,016.0,0000.0,0002.12,0003.99,0001.49
2024-04-26 16:18:00,SystemResetWarning,0816.1,5.01,000.00,026.3,025.7,000.0,034.6,028.1,015.9,0000.0,0002.08,0003.90,0001.48
2024-04-26 16:19:00,SystemResetWarning,0816.1,5.00,000.00,026.3,025.7,000.0,034.6,028.2,016.1,0000.0,0002.08,0003.98,0001.48
2024-04-26 16:20:00,SystemResetWarning,0816.1,5.00,000.00,026.3,025.8,000.0,034.7,028.2,015.9,0000.0,0002.09,0004.07,0001.48
2024-04-26 16:21:00,SystemResetWarning,0816.1,5.00,000.00,026.4,025.8,000.0,034.7,028.2,015.7,0000.0,0002.09,0004.23,0001.48
2024-04-26 16:22:00,SystemResetWarning,0816.1,5.01,000.00,026.4,025.8,000.0,034.7,028.2,015.8,0000.0,0002.12,0004.42,0001.48
2024-04-26 16:23:00,SystemResetWarning,0816.0,5.00,000.00,026.4,025.8,000.0,034.7,028.2,016.0,0000.0,0002.12,0004.48,0001.47
2024-04-26 16:24:00,SystemResetWarning,0816.1,4.99,000.00,026.4,025.9,000.0,034.7,028.3,014.9,0000.0,0002.13,0004.52,0001.47
2024-04-26 16:25:00,SystemResetWarning,0816.1,5.00,000.00,026.4,025.9,000.0,034.7,028.3,014.9,0000.0,0002.06,0004.27,0001.45
2024-04-26 16:26:00,SystemResetWarning,0816.0,5.01,000.00,026.4,025.9,000.0,034.8,028.3,014.5,0000.0,0001.98,0004.25,0001.43
2024-04-26 16:27:00,SystemResetWarning,0816.1,5.00,000.00,026.5,025.8,000.0,034.8,028.3,013.9,0000.0,0001.96,0004.87,0001.41
2024-04-26 16:28:00,SystemResetWarning,0816.1,5.01,000.00,026.5,025.8,000.0,034.8,028.3,014.5,0000.0,0001.97,0004.90,0001.40
2024-04-26 16:29:00,SystemResetWarning,0816.1,5.00,000.00,026.5,025.8,000.0,034.8,028.3,014.1,0000.0,0001.99,0005.39,0001.39
2024-04-26 16:30:00,SystemResetWarning,0816.0,5.00,000.00,026.5,025.9,000.0,034.8,028.3,014.5,0000.0,0002.04,0005.80,0001.37
2024-04-26 16:31:00,SystemResetWarning,0816.0,5.00,000.00,026.5,025.9,000.0,034.8,028.3,014.8,0000.0,0002.03,0005.76,0001.36
2024-04-26 16:32:00,SystemResetWarning,0816.1,5.00,000.00,026.5,025.9,000.0,034.8,028.3,014.3,0000.0,0002.05,0005.82,0001.36
2024-04-26 16:33:00,SystemResetWarning,0816.1,5.00,000.00,026.5,025.9,000.0,034.9,028.4,014.4,0000.0,0002.05,0006.71,0001.37
2024-04-26 16:34:00,SystemResetWarning,0816.1,5.00,000.00,026.6,026.0,000.0,034.9,028.4,014.6,0000.0,0002.05,0007.12,0001.38
2024-04-26 16:35:00,SystemResetWarning,0816.1,5.01,000.00,026.6,026.0,000.0,034.9,028.4,014.4,0000.0,0002.07,0007.14,0001.39
2024-04-26 16:36:00,SystemResetWarning,0816.1,5.00,000.00,026.6,026.0,000.0,034.9,028.4,013.5,0000.0,0002.13,0007.29,0001.41
2024-04-26 16:37:00,SystemResetWarning,0816.1,5.00,000.00,026.6,026.0,000.0,034.9,028.4,013.5,0000.0,0002.15,0007.28,0001.42
2024-04-26 16:38:00,SystemResetWarning,0816.2,5.00,000.00,026.6,026.1,000.0,034.9,028.4,013.7,0000.0,0002.17,0005.97,0001.43
2024-04-26 16:39:00,SystemResetWarning,0816.1,5.00,000.00,026.7,026.1,000.0,035.0,028.5,013.3,0000.0,0002.18,0005.94,0001.44
2024-04-26 16:40:00,SystemResetWarning,0816.1,5.00,000.00,026.7,026.1,000.0,035.0,028.5,013.3,0000.0,0002.17,0005.75,0001.44
2024-04-26 16:41:00,SystemResetWarning,0816.1,4.99,000.00,026.7,026.1,000.0,035.0,028.5,013.1,0000.0,0002.14,0005.41,0001.44
2024-04-26 16:42:00,SystemResetWarning,0816.0,4.99,000.00,026.7,025.9,000.0,035.0,028.4,013.5,0000.0,0002.12,0005.34,0001.45
2024-04-26 16:43:00,SystemResetWarning,0816.0,5.00,000.00,026.5,024.4,000.0,035.1,027.5,013.6,0000.0,0002.13,0005.24,0001.45
2024-04-26 16:44:00,SystemResetWarning,0815.9,5.00,000.00,026.0,022.6,000.0,035.0,026.5,013.6,0000.0,0002.10,0005.37,0001.43
2024-04-26 16:45:00,SystemResetWarning,0815.8,5.01,000.00,025.7,022.5,000.0,034.9,026.3,013.8,0000.0,0002.11,0005.69,0001.41
2024-04-26 16:46:00,SystemResetWarning,0816.0,5.01,000.00,025.6,022.9,000.0,034.8,026.5,013.2,0000.0,0002.11,0005.63,0001.39
2024-04-26 16:47:00,SystemResetWarning,0816.0,4.99,000.00,025.6,023.2,000.0,034.6,026.8,013.2,0000.0,0002.10,0005.56,0001.38
2024-04-26 16:48:00,SystemResetWarning,0816.0,5.00,000.00,025.6,023.5,000.0,034.5,027.0,013.9,0000.0,0002.13,0005.66,0001.37
2024-04-26 16:49:00,SystemResetWarning,0816.0,5.00,000.00,025.6,023.8,000.0,034.4,027.1,013.9,0000.0,0002.13,0005.80,0001.36
2024-04-26 16:50:00,SystemResetWarning,0816.0,5.01,000.00,025.6,024.0,000.0,034.4,027.3,013.7,0000.0,0002.15,0005.87,0001.36
2024-04-26 16:51:00,SystemResetWarning,0816.0,4.99,000.00,025.6,024.2,000.0,034.3,027.3,013.7,0000.0,0002.18,0006.00,0001.36
2024-04-26 16:52:00,SystemResetWarning,0816.0,4.99,000.00,025.7,024.4,000.0,034.3,027.4,013.7,0000.0,0002.15,0005.64,0001.36
2024-04-26 16:53:00,SystemResetWarning,0815.9,5.00,000.00,025.7,024.6,000.0,034.3,027.5,014.2,0000.0,0002.14,0005.64,0001.35
2024-04-26 16:54:00,SystemResetWarning,0815.9,5.01,000.00,025.7,024.7,000.0,034.3,027.5,014.2,0000.0,0002.13,0005.61,0001.35
2024-04-26 16:55:00,SystemResetWarning,0815.8,5.01,000.00,025.8,024.8,000.0,034.3,027.6,014.1,0000.0,0002.10,0004.93,0001.33
2024-04-26 16:56:00,SystemResetWarning,0815.9,4.99,000.00,025.8,024.8,000.0,034.3,027.6,013.8,0000.0,0002.06,0003.51,0001.33
2024-04-26 16:57:00,SystemResetWarning,0815.8,4.99,000.00,025.8,024.9,000.0,034.3,027.6,014.2,0000.0,0002.03,0003.67,0001.33
2024-04-26 16:58:00,SystemResetWarning,0815.8,5.01,000.00,025.8,025.0,000.0,034.3,027.7,014.1,0000.0,0002.05,0003.86,0001.35
2024-04-26 16:59:00,SystemResetWarning,0815.9,5.00,000.00,025.9,025.1,000.0,034.3,027.7,014.0,0000.0,0002.02,0003.75,0001.36
